Location: Poughquag
(41.6090°N, 73.6820°W)
Time: 09:49:33
(UTC-04:00)

UWE-3 - Visible Passes

Search period start: 02 April 2020 00:00
Search period end: 12 April 2020 00:00
Orbit: 585 x 682 km, 97.6° (Epoch: 31 March)

Date Brightness Start Highest point End Pass type
(mag) Time Alt. Az. Time Alt. Az. Time Alt. Az.
03 Apr ? 05:10:44 10° ENE 05:13:02 14° E 05:15:18 10° ESE visible
04 Apr ? 05:31:19 10° NE 05:34:49 24° E 05:38:13 10° SSE visible
05 Apr ? 05:52:27 10° NNE 05:56:31 41° E 06:00:28 10° S visible
07 Apr ? 05:01:47 10° ENE 05:02:50 11° E 05:03:52 10° ESE visible
08 Apr ? 05:21:37 10° NE 05:24:38 19° E 05:27:36 10° SE visible
09 Apr ? 05:42:33 10° NNE 05:46:22 32° E 05:50:05 10° SSE visible
